Regional Weather Roundup
Issued by NWS

Home | Current Version | Previous Version | Graphics & Text | Print | Product List | Glossary On
Versions: 1 2 3 4 5 6 7 8 9 10 11 12 13 14 15 16 17 18 19 20 21 22 23 24 25 26 27 28 29 30 31 32 33 34 35 36 37 38 39 40 41 42 43 44 45 46 47 48 49 50
000
ASUS43 KLSX 051559
RWRMO

WEATHER SUMMARY FOR MISSOURI
NATIONAL WEATHER SERVICE SPRINGFIELD MO
1100 AM CDT TUE MAY 05 2015

NOTE: "FAIR" INDICATES FEW OR NO CLOUDS BELOW 12,000 FEET WITH NO
       SIGNIFICANT WEATHER AND/OR OBSTRUCTIONS TO VISIBILITY.
       CURRENT SKY AND/OR WEATHER CONDITIONS ARE NOT AVAILABLE FOR
       CHILLICOTHE AND FARMINGTON.

MOZ001>031-035>038-043-044-053-054-051700-
...NORTHERN AND WESTERN MISSOURI...

CITY           SKY/WX    TMP DP  RH WIND       PRES   REMARKS
KANSAS CTY INT MOSUNNY   75  63  66 S12       30.12R
KANSAS C DTWN  MOSUNNY   75  61  61 S14       30.11R
LEE`S SUMMIT   SUNNY     75  60  59 S8        30.13S
ST JOSEPH      CLOUDY    70  62  76 S7        30.11R
CHILLICOTHE      N/A     72  63  73 S3        30.14F
KIRKSVILLE     MOSUNNY   73  64  73 SE5       30.16S

$$
MOZ066>068-077>081-088>096-101>105-051700-
...SOUTHWEST MISSOURI...

CITY           SKY/WX    TMP DP  RH WIND       PRES   REMARKS
SPRINGFIELD    MOSUNNY   75  61  61 S12       30.16R
JOPLIN         PTSUNNY   75  62  64 S9        30.13S

$$
MOZ032>034-039>042-045>050-055>058-069>072-051700-
...CENTRAL MISSOURI...

CITY           SKY/WX    TMP DP  RH WIND       PRES   REMARKS
COLUMBIA       SUNNY     77  59  53 S13       30.17S
JEFFERSON CITY SUNNY     77  57  50 S13       30.16S
ROLLA          SUNNY     77  60  55 S8        30.18S
SEDALIA        MOSUNNY   78  58  49 SW12      30.16S
WHITEMAN AFB   SUNNY     78  60  54 S14G20    30.13S
OSAGE BEACH    SUNNY     81  57  44 S6        30.16S

$$
MOZ051-052-059>065-051700-
...EAST CENTRAL MISSOURI...

CITY           SKY/WX    TMP DP  RH WIND       PRES   REMARKS
ST LOUIS INTL  MOSUNNY   82  55  39 SW12      30.19F
SPIRIT OF STL  FAIR      79  56  45 SW8G17    30.17F
ST CHARLES     SUNNY     81  56  42 SW12      30.17F

$$
MOZ072>076-082>087-097>100-106>115-051700-
...SOUTH CENTRAL AND SOUTHEAST MISSOURI...

CITY           SKY/WX    TMP DP  RH WIND       PRES   REMARKS
CAPE GIRARDEAU MOSUNNY   79  59  50 VRB6      30.22F
FARMINGTON     SUNNY     77  57  50 SW10G17   30.26S
POPLAR BLUFF   MOSUNNY   79  61  53 SW8       30.21S
WEST PLAINS    CLOUDY    69  59  70 S5        30.23S

$$



USA.gov is the U.S. government's official web portal to all federal, state and local government web resources and services.